Location: Tierra del Sol
(32.6128°N, 116.3319°W)
Time: 11:34:53
(UTC-07:00)

Vanguard 1 Rocket - Visible Passes

Search period start: 20 July 2018 00:00
Search period end: 30 July 2018 00:00
Orbit: 652 x 4225 km, 34.3° (Epoch: 18 July)

Date Brightness Start Highest point End Pass type
(mag) Time Alt. Az. Time Alt. Az. Time Alt. Az.
20 Jul 11.8 03:33:58 10° SSE 03:41:32 12° SE 03:48:49 10° ESE visible
21 Jul 11.5 04:38:22 10° S 04:58:16 29° SE 05:15:04 10° E visible
22 Jul 11.6 03:29:58 10° SSE 03:44:09 18° SE 03:57:38 10° E visible
23 Jul 11.4 04:38:51 10° SSW 05:00:42 36° SE 05:19:14 10° E visible
24 Jul 11.5 03:28:58 10° S 03:46:32 24° SE 04:03:23 10° E visible
25 Jul 11.6 02:23:57 10° SSE 02:32:47 13° SE 02:41:47 10° ESE visible
25 Jul 11.2 04:39:53 10° SSW 05:03:01 44° SE 05:22:55 10° ENE visible
26 Jul 11.3 03:31:16 13° S 03:48:45 31° SE 04:07:58 10° E visible
27 Jul 11.4 02:24:11 13° SSE 02:35:02 19° SE 02:49:41 10° E visible
27 Jul 11.0 04:41:28 10° SSW 05:05:17 52° SE 05:26:20 10° ENE visible
28 Jul 11.1 03:34:20 18° S 03:50:52 38° SE 04:11:53 10° E visible
29 Jul 11.2 02:27:11 19° SSE 02:37:06 25° SE 02:55:06 10° E visible
29 Jul 10.9 04:44:28 13° SW 05:07:33 60° SSE 05:29:33 10° ENE visible
